ECMWFNIL_prec_cthk_057.txt.gz
RH
63 66 71 73 71 71 72 70 69 70 69 67 67 67 62 56 54 52 51 52 52 52 52 53 51 48 47 46 45 46 50 53 53 51 47 45 45 45 47 49 49 49
64 65 68 73 72 70 72 71 69 70 67 66 70 69 63 58 54 52 51 51 51 51 51 51 48 44 44 45 44 46 52 56 56 52 49 48 47 47 49 48 48 49
66 66 66 70 71 70 72 72 71 70 67 67 70 67 61 58 56 54 54 54 54 55 54 51 48 44 44 45 45 47 54 58 56 54 51 49 50 50 50 48 46 48
66 67 66 69 72 72 72 71 72 72 70 69 68 64 62 62 60 57 56 57 59 60 58 55 51 48 46 46 45 48 53 55 55 54 51 49 50 50 49 47 45 48
65 68 67 69 73 74 72 71 72 74 73 71 66 65 68 67 62 61 61 61 61 62 61 59 56 54 52 50 47 46 48 52 54 54 51 50 52 52 48 45 44 48
63 67 67 67 71 75 74 73 74 76 76 71 67 67 70 67 64 65 66 65 63 62 61 60 57 56 55 52 47 43 45 51 53 53 51 51 52 52 48 45 45 48
63 67 66 65 69 74 76 75 77 79 77 72 70 69 68 64 62 64 66 66 64 61 59 59 57 56 57 56 50 45 46 51 54 54 52 50 51 51 50 48 46 47
67 67 66 65 67 71 76 77 79 81 77 72 72 69 64 60 59 63 67 67 65 62 59 57 54 53 57 58 53 48 47 51 55 54 51 50 49 49 50 49 46 46
68 68 66 66 65 67 74 80 81 79 75 72 73 68 62 60 62 68 72 70 67 66 62 57 53 52 55 57 54 48 46 50 53 53 52 51 48 47 48 48 48 48
67 66 66 66 65 64 72 81 82 78 75 74 73 67 63 65 67 70 74 73 71 70 66 61 55 52 53 54 52 48 47 51 53 52 52 51 47 48 51 51 50 49
72 69 66 68 70 70 71 76 79 77 76 75 72 68 70 72 71 71 74 75 73 72 70 65 58 54 55 54 50 49 50 51 52 52 51 49 47 48 52 53 50 47
78 74 72 74 79 79 73 73 76 76 75 75 72 72 77 75 71 74 78 76 75 75 73 68 62 58 58 56 52 52 52 49 48 47 44 43 43 43 46 49 47 43
74 75 77 79 85 86 77 73 75 75 75 76 76 77 80 76 72 77 80 76 76 77 75 71 67 63 62 59 54 52 51 47 46 45 42 40 40 37 37 40 39 37
72 77 80 83 88 90 81 73 73 76 75 77 80 82 82 78 74 77 78 75 75 77 75 73 70 67 65 61 55 52 50 47 47 47 46 45 44 42 38 36 35 34
74 81 86 88 90 89 84 77 75 75 75 75 79 83 84 81 76 74 76 76 75 75 75 74 72 68 64 60 56 52 48 47 47 48 49 49 49 48 43 37 37 38
82 86 91 93 90 88 88 83 78 77 77 76 76 79 84 84 78 74 76 76 74 74 74 74 72 68 63 60 59 54 47 46 47 48 49 49 48 48 44 39 37 40
87 90 94 94 91 90 90 86 81 80 79 78 76 77 83 85 80 77 78 77 76 75 75 74 73 69 63 61 61 57 50 48 49 50 50 47 44 45 47 44 40 41
92 94 97 95 93 93 91 86 84 83 80 80 80 80 83 84 79 79 79 79 78 76 74 75 75 70 64 62 63 60 54 50 49 49 49 47 45 45 47 48 44 43
96 97 97 96 94 94 90 85 86 84 81 83 84 83 83 83 80 81 81 80 78 74 73 76 76 72 67 65 65 61 55 51 48 46 47 49 50 48 46 46 45 44
98 97 96 95 96 96 91 88 87 84 82 86 86 83 84 84 82 82 80 79 76 72 69 70 71 71 68 68 68 63 56 52 49 48 50 52 51 50 49 49 49 50
98 97 97 96 96 97 94 91 89 86 86 89 86 83 85 85 83 81 79 79 76 70 65 64 65 66 66 67 69 66 59 56 55 54 57 58 55 54 53 53 53 54
98 98 97 97 97 96 94 91 90 89 90 90 86 85 88 88 85 83 82 81 76 70 67 68 69 70 70 70 68 64 58 57 58 60 62 64 63 60 56 53 52 54
99 98 97 97 97 96 94 93 91 91 92 90 87 89 92 91 88 86 84 81 77 74 73 75 77 78 78 75 70 64 59 59 61 63 66 68 68 65 60 56 56 57
100 100 99 99 99 98 96 95 94 93 94 93 92 93 95 93 89 87 85 83 81 79 78 80 82 84 83 80 76 70 67 67 67 68 71 71 70 69 66 62 63 65
99 100 100 99 99 99 98 96 95 95 96 95 94 95 94 91 89 88 87 86 85 84 84 85 88 88 87 87 84 80 79 79 77 76 77 77 76 75 73 71 72 74
98 99 100 99 98 98 97 96 95 95 94 93 92 93 92 91 91 91 89 89 90 90 92 93 94 93 93 93 90 87 86 86 84 82 81 79 78 76 74 73 74 75

ECMWFNIL_prec_cthk_060.txt.gz
RH
60 66 75 83 86 85 84 85 84 80 78 78 78 74 70 67 63 60 58 56 55 54 53 51 51 52 54 55 53 52 50 48 47 48 48 46 44 43 43 46 48 47
60 65 73 80 85 86 85 87 86 80 77 78 77 74 70 66 62 58 56 54 54 54 53 52 51 51 54 55 54 52 49 46 46 48 49 49 48 45 43 44 46 47
65 66 72 76 81 85 84 85 85 80 78 78 78 75 71 67 62 58 55 52 52 53 54 53 52 52 54 55 54 51 46 45 45 48 52 52 50 47 44 43 44 46
69 67 72 74 76 80 80 79 80 80 79 79 78 74 71 68 64 60 57 53 51 52 53 53 52 51 53 54 53 52 50 49 50 51 54 54 51 49 47 45 46 47
71 68 70 73 73 74 75 74 75 76 78 79 78 75 72 69 66 62 60 57 55 54 54 53 52 51 54 55 54 54 55 54 56 57 57 55 52 50 49 49 49 48
72 69 69 73 74 71 71 73 75 74 76 77 76 74 73 69 66 64 62 61 60 59 57 56 54 55 58 59 56 56 54 53 57 60 58 55 53 50 50 50 49 47
69 67 67 70 72 70 73 81 83 80 78 76 74 74 73 69 65 64 64 64 65 64 62 61 60 59 61 61 58 56 54 55 58 57 55 55 54 52 51 50 49 47
68 66 64 66 68 71 78 85 86 86 83 78 76 75 72 68 63 62 64 66 68 67 65 64 63 63 63 61 57 54 54 56 57 54 54 55 55 53 51 50 49 48
68 65 62 63 65 70 78 82 84 89 85 79 78 77 73 69 63 61 65 69 69 67 66 65 65 65 65 62 57 54 55 58 57 55 55 56 56 55 52 49 49 49
72 66 63 65 68 71 78 83 87 91 87 80 81 81 77 73 66 64 69 70 69 69 68 67 65 65 65 63 58 56 59 61 59 58 59 59 58 56 53 50 49 49
74 70 68 71 73 72 77 83 87 91 90 83 81 83 81 75 68 67 71 72 71 72 71 67 64 64 64 61 57 56 58 60 59 59 62 62 60 57 54 51 50 49
75 76 77 78 75 72 75 79 81 87 92 88 83 83 80 73 69 71 73 74 75 75 73 69 65 65 64 59 57 56 56 57 57 58 61 64 63 59 55 53 52 51
78 78 78 78 77 75 76 77 78 84 91 91 87 83 77 72 75 77 76 76 77 76 75 70 67 69 68 63 59 57 55 55 55 55 58 62 64 61 56 53 51 50
76 76 74 75 79 81 80 79 81 85 90 92 89 82 75 75 79 80 78 78 78 78 77 72 69 71 71 67 63 58 55 54 53 53 55 57 58 55 50 48 48 48
70 74 75 75 79 82 82 84 87 88 90 92 88 82 79 79 80 81 80 79 79 80 81 76 73 76 76 71 67 61 56 54 53 52 52 51 49 47 44 42 44 46
65 69 73 75 78 81 84 89 92 91 90 90 85 82 83 81 80 83 82 82 82 82 82 80 78 80 80 76 71 65 59 55 53 51 50 48 49 49 46 43 43 45
67 68 73 77 80 84 87 91 93 91 91 89 83 81 82 79 79 82 83 83 84 84 84 82 80 82 82 79 75 69 62 57 53 49 49 49 49 51 51 48 46 44
69 71 77 81 82 86 90 93 94 91 90 90 84 78 78 76 76 80 82 85 86 86 85 82 80 81 81 80 78 72 64 57 50 47 47 48 49 50 52 51 47 42
71 76 83 85 85 88 91 95 96 93 91 91 86 79 76 75 75 77 80 85 87 87 86 82 79 81 81 82 82 78 68 56 49 47 47 48 49 51 51 52 49 42
79 83 87 87 89 92 95 96 97 95 92 90 87 83 78 75 76 78 82 86 88 88 86 84 82 82 83 82 83 83 75 61 50 48 48 47 49 50 51 51 51 48
86 91 92 93 96 97 98 98 97 94 92 90 88 86 81 76 77 82 85 87 89 88 88 87 85 84 83 82 83 85 82 70 56 51 50 49 49 50 51 51 53 53
94 98 98 98 99 99 100 99 95 92 93 92 89 88 84 79 79 84 87 87 88 88 87 86 87 86 83 81 82 85 84 77 66 58 54 53 52 53 55 55 54 52
97 100 99 99 99 99 99 97 94 93 92 91 90 90 88 84 84 87 88 87 86 85 82 82 85 84 81 79 81 83 81 78 74 68 62 57 56 57 59 60 58 53
96 98 100 100 100 99 97 96 95 94 92 91 91 91 91 91 91 91 90 88 86 83 81 82 83 82 79 77 77 77 76 75 76 74 67 61 61 61 62 63 63 58
94 97 99 99 99 99 97 96 96 95 95 93 93 93 93 93 93 93 92 90 87 84 84 85 84 83 82 80 77 75 74 75 76 73 68 66 68 70 71 72 72 68
93 96 98 99 100 99 98 98 97 97 97 97 96 96 95 94 94 93 92 91 88 87 88 87 86 86 88 87 84 81 78 78 77 73 71 71 72 75 79 81 81 80

ECMWFNIL_prec_cthk_063.txt.gz
RH
68 68 62 56 56 65 73 77 77 75 75 78 81 81 78 74 75 75 72 71 68 61 55 53 53 54 54 53 52 52 52 53 53 53 53 53 52 51 49 47 46 47
69 70 66 57 54 62 72 77 77 75 75 78 80 80 78 75 73 75 72 66 61 57 53 55 58 57 54 53 52 53 52 53 53 53 52 51 50 48 46 45 45 45
69 69 69 61 53 59 71 77 78 79 79 81 82 79 78 79 77 75 71 63 58 57 55 56 57 55 51 49 50 51 52 53 54 54 53 50 48 47 47 47 45 44
75 71 71 67 60 62 72 77 79 83 85 87 88 83 80 82 81 77 70 64 59 57 57 57 56 53 50 48 49 51 52 53 54 54 53 51 49 49 50 50 47 45
81 77 74 70 67 69 76 79 80 85 89 92 92 88 86 85 81 76 71 65 60 58 56 56 55 52 49 47 49 52 53 53 54 53 52 52 51 51 51 52 50 47
79 78 74 70 69 72 76 79 80 83 88 92 88 84 85 86 81 76 71 66 60 57 55 53 53 52 50 50 52 54 55 54 54 54 54 55 55 54 53 52 51 50
79 75 71 69 70 74 76 76 79 84 88 91 89 82 79 81 81 76 70 67 60 55 54 53 53 53 52 52 55 56 56 55 56 58 58 58 58 58 55 52 51 51
80 72 69 68 71 77 78 76 80 86 90 92 91 86 80 77 79 78 73 68 61 56 56 56 56 56 55 55 58 59 58 58 59 61 61 59 58 58 55 52 51 52
75 70 69 70 72 76 78 78 80 84 88 91 90 88 83 77 81 84 77 69 64 61 60 59 59 60 58 59 62 62 60 60 60 60 60 59 57 54 53 52 52 53
73 69 69 71 73 75 77 79 80 79 82 88 89 89 86 80 81 86 80 71 68 66 63 62 62 62 62 63 63 61 58 57 57 58 58 57 54 51 51 52 53 54
76 74 72 72 71 72 75 77 79 77 77 84 89 90 88 81 80 87 82 73 69 67 65 65 64 64 65 64 63 59 56 55 56 58 58 55 53 51 52 54 56 55
74 76 75 73 70 70 75 78 79 76 75 80 86 88 88 80 79 87 83 72 69 67 66 66 65 65 66 63 61 59 57 58 60 60 59 56 54 53 56 59 59 57
67 71 73 73 72 74 77 79 79 77 75 78 80 84 87 80 78 86 83 72 69 68 67 68 68 68 66 62 61 60 59 62 63 61 59 56 54 55 58 61 61 59
63 67 69 70 73 77 79 80 81 80 77 77 78 80 84 81 81 86 84 75 72 71 71 71 70 70 67 62 61 61 61 61 60 59 57 55 53 55 59 63 64 60
58 62 65 67 70 73 77 81 86 86 80 78 80 82 84 86 87 88 84 79 75 73 73 72 70 71 69 65 64 63 63 62 60 57 55 52 52 54 57 62 63 61
54 59 63 66 67 68 71 77 86 90 88 86 86 86 86 86 87 88 85 82 79 76 75 72 72 74 71 67 66 66 66 65 62 58 54 52 52 52 54 58 59 58
52 56 61 65 67 68 70 76 82 87 91 92 90 89 88 86 85 87 86 84 82 80 78 75 75 77 74 69 67 67 68 67 64 59 55 53 52 51 51 53 52 51
54 55 59 62 65 67 70 77 83 84 87 91 90 89 90 87 86 87 86 84 84 83 82 79 78 80 79 74 71 71 71 70 67 61 56 54 54 52 51 50 49 49
56 58 59 60 63 65 66 73 80 82 85 90 91 89 89 87 87 89 88 86 85 85 84 82 79 82 83 80 76 75 74 73 71 64 58 56 56 53 50 49 49 51
59 63 65 64 64 65 66 70 76 80 86 91 91 90 90 88 88 90 89 86 85 83 83 82 81 82 84 82 79 77 77 77 76 70 62 59 58 54 50 48 48 49
59 64 68 69 68 68 70 74 79 84 89 91 89 90 92 90 91 91 87 84 83 80 79 80 81 82 83 82 80 79 78 78 79 76 69 63 60 55 50 48 47 48
58 64 71 74 73 74 77 81 86 90 93 93 92 93 95 94 93 91 85 81 80 79 77 77 78 80 83 83 82 81 79 78 80 81 76 70 65 58 53 50 48 48
59 65 74 76 76 80 87 91 95 97 96 96 96 95 94 94 92 91 87 82 79 78 78 77 77 79 83 85 84 83 81 80 81 83 79 74 70 63 56 52 50 50
59 65 73 78 78 84 92 96 98 99 99 98 97 95 93 91 92 92 90 85 82 80 79 79 81 82 84 86 86 85 84 83 83 83 81 76 72 68 62 56 54 54
61 63 70 78 83 87 95 98 98 98 98 97 96 95 93 91 92 93 92 89 88 86 83 83 85 85 85 85 86 86 87 86 84 83 82 79 75 71 66 61 59 58
65 64 66 74 82 90 96 100 99 98 98 96 95 95 93 92 93 94 94 93 92 91 89 88 89 89 87 85 85 86 87 87 86 85 83 80 76 72 68 64 63 63

ECMWFNIL_prec_cthk_069.txt.gz
RH
61 63 65 66 67 68 71 75 78 76 69 67 73 82 87 87 88 91 93 92 89 90 91 90 89 88 87 88 87 87 86 79 69 60 60 65 65 58 55 53 54 60
65 66 66 67 70 72 72 76 79 77 70 66 70 78 85 87 87 89 92 93 90 88 87 90 91 90 89 90 89 87 85 74 65 62 62 63 62 60 58 56 56 60
66 68 67 67 71 74 75 77 81 78 72 67 68 73 80 85 88 87 87 90 92 91 89 88 90 92 93 92 88 86 81 70 63 64 62 59 59 60 62 61 61 63
64 67 67 67 71 75 77 79 81 77 73 69 67 70 75 81 86 87 86 87 90 92 92 88 87 89 91 90 88 85 79 72 68 64 59 57 59 63 67 65 65 66
64 67 69 70 72 74 78 81 80 76 73 71 69 69 71 76 82 86 88 89 89 92 93 90 86 86 87 86 84 81 78 75 70 62 58 58 59 63 69 68 65 65
66 69 74 75 74 74 78 80 79 75 74 75 71 68 69 74 80 85 88 90 91 91 92 90 88 87 85 81 79 78 76 73 69 63 59 60 61 65 69 66 61 59
69 72 77 81 81 79 80 81 80 77 77 77 75 71 70 73 79 84 87 88 89 89 89 88 87 86 83 80 81 82 78 72 68 63 61 63 65 68 70 65 57 54
66 70 75 81 85 86 85 85 83 81 79 79 79 76 73 74 78 82 85 86 86 86 86 86 86 85 83 81 82 84 80 73 65 62 64 65 63 62 64 60 54 54
60 65 71 77 82 86 89 89 87 85 83 81 80 77 75 76 77 78 82 85 83 83 84 85 86 85 82 80 78 80 82 76 65 61 62 61 57 57 58 56 55 56
53 57 65 73 78 82 86 89 89 87 84 81 78 75 74 77 78 75 76 80 81 82 83 85 86 85 81 78 74 75 80 75 65 60 58 56 56 56 56 56 57 58
50 52 58 66 73 79 82 84 86 86 84 79 75 73 74 78 80 79 77 77 79 81 84 87 88 85 80 78 74 72 72 69 62 58 57 56 56 55 55 57 58 60
49 52 55 60 66 73 78 83 85 85 82 78 73 72 74 76 77 79 79 79 78 81 85 88 88 85 80 79 76 70 65 62 60 59 59 58 58 60 62 62 60 62
45 48 52 55 59 64 69 75 81 84 82 78 74 72 73 75 76 77 79 79 77 79 84 87 88 85 81 80 77 71 63 60 60 60 60 62 62 64 71 70 65 64
41 42 46 50 52 55 59 62 68 75 78 77 75 73 73 74 75 76 78 79 77 76 79 84 86 84 83 81 77 71 65 63 64 63 63 66 66 67 74 76 69 66
40 39 41 44 48 49 50 51 54 60 66 69 71 73 73 75 75 75 76 79 78 75 76 80 84 83 83 82 77 72 69 68 69 68 67 69 68 70 75 76 73 71
42 40 38 40 44 46 46 46 48 51 57 60 63 66 70 73 75 76 75 77 79 79 76 78 82 85 85 82 76 72 71 70 71 72 72 70 67 68 71 72 72 72
45 43 40 38 39 42 44 45 46 49 52 56 58 60 64 67 71 74 75 75 77 81 80 78 80 85 87 83 76 74 73 71 72 74 74 71 68 68 69 69 69 68
47 45 44 40 37 37 40 43 44 45 48 51 54 57 60 63 67 71 74 74 74 77 81 81 80 83 87 83 77 76 76 75 76 77 75 72 70 70 69 68 66 63
47 46 45 43 40 37 38 39 42 43 44 45 49 54 58 61 64 69 75 80 80 78 81 85 85 86 86 82 78 78 78 79 79 76 73 71 71 71 68 64 62 59
46 45 44 43 41 39 38 38 39 42 44 44 46 51 57 61 64 65 70 79 85 84 82 86 89 89 87 82 79 80 81 82 81 77 73 72 70 69 66 61 59 58
47 46 44 43 42 40 39 38 39 41 43 44 46 49 56 62 65 66 67 74 84 88 87 88 90 91 89 84 81 82 85 86 84 79 75 72 70 69 66 62 60 58
48 46 44 43 43 42 40 39 39 41 42 44 46 49 55 61 65 69 70 72 82 90 92 92 91 91 91 87 83 84 86 88 87 83 77 72 71 72 70 65 62 59
48 47 46 45 45 45 44 42 43 44 44 45 48 51 56 60 64 70 72 73 80 89 93 94 94 94 93 89 86 85 87 88 86 84 79 73 72 74 72 68 65 62
50 49 48 48 48 48 48 47 47 47 47 48 50 53 57 61 64 71 75 75 78 84 89 95 97 96 95 92 88 88 89 88 85 83 80 75 74 78 79 73 69 66
53 52 51 51 51 51 51 51 50 48 48 49 52 56 59 62 66 72 77 79 80 83 89 97 100 98 97 94 91 91 92 90 88 87 84 80 79 83 83 79 76 74
57 57 56 55 55 55 54 53 52 51 50 50 53 56 59 62 68 76 80 82 87 91 95 99 100 98 97 95 94 93 93 93 92 91 89 86 84 85 85 84 84 85

ECMWFNIL_prec_cthk_072.txt.gz
RH
60 60 59 57 57 58 59 60 61 64 66 69 72 70 66 66 67 68 73 80 84 85 86 86 86 88 91 90 87 85 84 85 87 85 81 76 70 66 65 65 64 61
59 59 58 57 57 59 63 63 63 64 68 72 75 72 69 68 66 67 72 79 83 85 86 86 86 87 89 89 87 87 87 88 88 84 80 76 70 65 64 65 64 61
57 56 56 55 54 57 63 65 64 65 68 72 75 74 72 71 68 67 71 76 82 85 87 88 87 86 87 85 84 84 86 86 86 83 77 74 70 64 62 64 68 64
56 56 58 58 57 58 64 67 67 67 67 70 75 75 74 73 70 68 69 72 79 85 88 88 88 86 85 84 82 82 83 84 85 84 79 76 73 67 62 64 68 66
59 59 61 64 63 63 68 71 70 69 69 73 78 76 73 74 74 71 70 72 77 84 88 89 89 87 85 84 83 83 85 84 84 84 82 80 76 68 63 63 63 62
60 61 63 64 65 65 70 76 76 73 73 76 80 79 74 74 75 73 72 74 78 82 86 89 90 89 86 86 85 84 85 84 83 83 82 78 73 69 65 62 60 61
55 58 59 60 62 63 66 74 78 79 80 80 81 81 79 76 75 74 73 75 78 80 84 88 89 89 87 86 85 83 83 84 83 82 81 77 73 72 69 63 59 61
47 49 51 52 55 59 62 68 74 80 85 87 85 82 82 81 78 76 77 77 77 78 82 87 87 87 87 87 87 86 84 84 83 82 82 79 75 75 74 70 64 61
44 45 47 47 51 55 60 64 69 76 82 87 90 88 86 84 81 80 80 80 78 77 80 85 85 84 85 87 88 88 86 84 82 82 82 79 77 76 73 70 66 63
42 45 46 47 49 53 56 61 68 75 79 82 86 89 89 87 84 83 82 82 80 79 78 81 83 82 82 84 86 87 86 84 82 80 79 77 74 72 70 68 67 68
39 41 43 45 46 49 53 57 63 73 79 80 81 87 92 89 84 82 81 80 80 80 78 78 79 80 79 81 83 86 86 85 83 81 78 76 71 69 73 72 69 72
39 39 40 43 45 47 50 52 56 63 73 79 82 87 92 89 84 82 81 80 79 79 79 77 76 76 77 77 80 84 84 84 85 82 79 77 70 70 77 73 64 64
43 41 40 41 43 47 49 50 53 55 61 71 78 85 87 85 84 84 82 81 79 78 77 77 78 77 75 76 79 81 81 82 84 83 81 77 71 74 79 70 61 61
47 44 43 42 41 44 47 49 51 52 53 59 68 76 80 81 83 83 82 80 79 78 78 79 84 83 78 78 81 82 82 82 83 84 82 77 74 79 78 66 62 65
50 47 46 43 40 41 44 46 49 51 51 52 57 63 69 73 77 79 80 79 77 78 77 78 85 87 82 80 83 84 83 83 83 82 80 77 77 79 73 63 61 62
53 50 49 45 41 39 40 42 45 48 50 51 52 54 58 61 67 71 75 78 78 77 76 76 81 85 82 81 83 84 83 82 82 82 79 78 78 75 68 63 64 62
53 51 50 48 44 40 38 39 41 43 46 49 50 51 51 52 56 61 67 72 75 76 76 76 79 82 82 83 84 84 81 81 83 83 80 79 78 74 70 67 66 66
54 51 49 48 47 43 40 39 38 39 41 43 45 47 48 49 50 53 58 63 67 71 74 75 78 82 84 86 87 84 80 80 84 82 79 79 78 75 75 73 69 68
54 52 50 49 47 45 44 41 39 38 39 40 41 43 44 47 48 49 52 56 60 65 70 72 75 81 84 85 86 86 81 79 83 82 79 79 78 77 78 79 76 74
55 53 52 50 48 46 46 44 41 39 39 39 39 39 40 43 45 47 49 52 56 61 66 69 71 77 82 84 85 86 84 81 81 82 80 79 78 78 78 80 80 79
57 55 53 51 49 47 45 44 42 41 40 39 39 39 39 40 42 45 47 50 54 58 64 68 70 72 78 83 85 86 88 88 86 83 81 80 80 80 79 79 80 80
58 56 55 53 50 48 46 45 44 44 43 42 42 41 41 41 42 43 46 50 53 58 62 66 69 72 73 78 85 88 91 93 92 87 83 81 82 82 81 80 80 81
57 56 56 55 53 52 50 48 47 46 46 46 46 45 44 42 42 43 46 49 53 57 61 63 68 73 73 74 82 89 93 93 94 94 89 84 82 82 82 81 81 84
56 56 55 54 54 54 53 51 50 48 48 48 48 48 47 45 44 44 47 51 53 57 61 64 68 73 75 75 79 89 95 94 95 98 94 86 83 82 82 83 81 84
56 55 54 54 53 53 54 54 53 51 50 49 49 49 49 48 47 48 50 54 56 58 61 64 69 75 78 77 78 87 96 96 95 98 94 87 85 84 85 85 82 82
56 55 56 56 54 54 54 55 55 54 54 53 51 51 51 51 52 54 56 58 59 61 63 66 71 76 79 79 80 87 95 96 96 98 95 88 87 86 86 87 85 84